Erie, PA

2:48 AM EDT on August 27, 2016 (GMT -0400)
Erie International

Weather History for KERI - September, 2013

Change the Weather History Date:

Friday, September 20, 2013

  Actual Average Record
Temperature  
Mean Temperature 71 °F 62 °F  
Max Temperature 79 °F 70 °F 90 °F (1925)
Min Temperature 63 °F 54 °F 39 °F (1973)
Degree Days  
Heating Degree Days 0 4  
Month to date heating degree days 61 45  
Since 1 July heating degree days 73 63  
Cooling Degree Days 6 2  
Month to date cooling degree days 65 59  
Year to date cooling degree days 686 617  
Growing Degree Days 21 (Base 50)    
Moisture  
Dew Point 64 °F    
Average Humidity 79    
Maximum Humidity 90    
Minimum Humidity 67    
Precipitation  
Precipitation 0.06 in 0.17 in 1.06 in (2006)
Month to date precipitation 2.00 2.93  
Year to date precipitation 35.87 28.76  
Snow  
Snow 0.00 in 0.00 in - ()
Month to date snowfall 0.0 0.0  
Since 1 July snowfall 0.0 0.0  
Since 1 September snowfall 0.0 0.0  
Snow Depth 0.00 in    
Sea Level Pressure  
Sea Level Pressure 29.89 in    
Wind  
Wind Speed 13 mph (South)    
Max Wind Speed 23 mph    
Max Gust Speed 29 mph    
Visibility 6 miles    
Events Rain    
T = Trace of Precipitation, MM = Missing Value Source: NWS Daily Summary

Daily Weather History Graph

Daily Weather History Graph

Search for Another Location

Airport or City:

Trip Planner

Search our weather history database for the weather conditions in past years. The results will help you decide how hot, cold, wet, or windy it might be!

Date:

Astronomy

Sep. 20, 2013 Rise Set
Actual Time 7:06 AM EDT 7:21 PM EDT
Civil Twilight 6:38 AM EDT 7:48 PM EDT
Nautical Twilight 6:05 AM EDT 8:21 PM EDT
Astronomical Twilight 5:31 AM EDT 8:55 PM EDT
Moon 7:51 PM EDT (9/20) 8:21 AM EDT (9/20)
Length of Visible Light 13h 10m
Length of Day
12h 14m
Full, 98% of the Moon is Illuminated
Sep 20
Full
Sep 26
Last Quarter
Oct 4
New
Oct 11
First Quarter
Oct 18
Full

Hourly Weather History & Observations

Time (EDT) Temp. Dew Point Humidity Pressure Visibility Wind Dir Wind Speed Gust Speed Precip Events Conditions
12:51 AM 64.9 °F 59.0 °F 81% 30.00 in 6.0 mi South 9.2 mph - N/A   Haze
1:51 AM 64.0 °F 59.0 °F 84% 29.99 in 6.0 mi South 8.1 mph - N/A   Haze
2:51 AM 63.0 °F 59.0 °F 87% 30.00 in 5.0 mi South 5.8 mph - N/A   Clear
3:51 AM 64.0 °F 59.0 °F 84% 29.98 in 5.0 mi South 10.4 mph - N/A   Haze
4:51 AM 64.0 °F 60.1 °F 87% 29.96 in 5.0 mi South 10.4 mph - N/A   Clear
5:51 AM 64.9 °F 61.0 °F 87% 29.95 in 5.0 mi South 10.4 mph - N/A   Clear
6:51 AM 64.9 °F 60.1 °F 84% 29.96 in 5.0 mi South 13.8 mph 19.6 mph N/A   Haze
7:51 AM 64.9 °F 61.0 °F 87% 29.95 in 4.0 mi South 13.8 mph 23.0 mph N/A   Clear
8:51 AM 68.0 °F 62.1 °F 81% 29.94 in 5.0 mi South 13.8 mph - N/A   Haze
9:51 AM 70.0 °F 63.0 °F 78% 29.94 in 7.0 mi South 15.0 mph - N/A   Clear
10:51 AM 73.0 °F 64.0 °F 73% 29.93 in 7.0 mi South 13.8 mph - N/A   Partly Cloudy
11:41 AM 71.6 °F 64.4 °F 78% 29.95 in 6.0 mi South 12.7 mph 19.6 mph N/A   Haze
11:48 AM 71.6 °F 64.4 °F 78% 29.95 in 5.0 mi South 11.5 mph 19.6 mph 0.00 in Rain Light Rain
11:51 AM 71.1 °F 64.9 °F 81% 29.94 in 5.0 mi South 9.2 mph - 0.00 in Rain Light Rain
12:51 PM 70.0 °F 66.0 °F 87% 29.90 in 4.0 mi South 12.7 mph 20.7 mph 0.03 in Rain Light Rain
1:51 PM 73.9 °F 66.9 °F 79% 29.88 in 5.0 mi South 16.1 mph - 0.00 in   Haze
2:51 PM 77.0 °F 66.9 °F 71% 29.84 in 6.0 mi South 17.3 mph 24.2 mph N/A   Haze
3:51 PM 78.1 °F 66.9 °F 68% 29.84 in 6.0 mi South 16.1 mph - N/A   Haze
4:51 PM 78.1 °F 66.9 °F 68% 29.82 in 6.0 mi South 20.7 mph 25.3 mph N/A   Haze
5:51 PM 77.0 °F 66.9 °F 71% 29.80 in 6.0 mi South 10.4 mph - N/A   Haze
6:51 PM 77.0 °F 66.9 °F 71% 29.79 in 7.0 mi South 10.4 mph 19.6 mph N/A   Partly Cloudy
7:51 PM 75.0 °F 66.9 °F 76% 29.77 in 8.0 mi South 12.7 mph - N/A   Clear
8:51 PM 75.0 °F 66.9 °F 76% 29.77 in 8.0 mi South 13.8 mph 20.7 mph N/A   Scattered Clouds
9:51 PM 75.0 °F 66.0 °F 73% 29.78 in 9.0 mi South 13.8 mph 23.0 mph N/A   Partly Cloudy
10:51 PM 73.9 °F 66.0 °F 76% 29.76 in 10.0 mi South 12.7 mph 23.0 mph N/A   Mostly Cloudy
11:44 PM 71.6 °F 66.2 °F 83% 29.78 in 10.0 mi West 11.5 mph 23.0 mph N/A   Overcast
11:51 PM 71.1 °F 66.0 °F 84% 29.77 in 10.0 mi West 15.0 mph 23.0 mph N/A   Overcast